Year,Month,Day,Hour,Minute,Value (Times are PST for temperature in C)
2021,04,20,00,00,8.40
2021,04,20,00,01,8.40
2021,04,20,00,02,8.30
2021,04,20,00,03,8.30
2021,04,20,00,04,8.20
2021,04,20,00,05,8.10
2021,04,20,00,06,8.10
2021,04,20,00,07,8.00
2021,04,20,00,08,8.00
2021,04,20,00,09,7.90
2021,04,20,00,10,7.80
2021,04,20,00,11,7.80
2021,04,20,00,12,7.80
2021,04,20,00,13,7.70
2021,04,20,00,14,7.70
2021,04,20,00,15,7.70
2021,04,20,00,16,7.70
2021,04,20,00,17,7.70
2021,04,20,00,18,7.70
2021,04,20,00,19,7.60
2021,04,20,00,20,7.60
2021,04,20,00,21,7.60
2021,04,20,00,22,7.60
2021,04,20,00,23,7.60
2021,04,20,00,24,7.60
2021,04,20,00,25,7.60
2021,04,20,00,26,7.60
2021,04,20,00,27,7.60
2021,04,20,00,28,7.60
2021,04,20,00,29,7.60
2021,04,20,00,30,7.60
2021,04,20,00,31,7.60
2021,04,20,00,32,7.60
2021,04,20,00,33,7.60
2021,04,20,00,34,7.60
2021,04,20,00,35,7.60
2021,04,20,00,36,7.60
2021,04,20,00,37,7.60
2021,04,20,00,38,7.60
2021,04,20,00,39,7.50
2021,04,20,00,40,7.50
2021,04,20,00,41,7.50
2021,04,20,00,42,7.50
2021,04,20,00,43,7.50
2021,04,20,00,44,7.50
2021,04,20,00,45,7.50
2021,04,20,00,46,7.40
2021,04,20,00,47,7.40
2021,04,20,00,48,7.40
2021,04,20,00,49,7.40
2021,04,20,00,50,7.30
2021,04,20,00,51,7.30
2021,04,20,00,52,7.30
2021,04,20,00,53,7.20
2021,04,20,00,54,7.20
2021,04,20,00,55,7.20
2021,04,20,00,56,7.10
2021,04,20,00,57,7.10
2021,04,20,00,58,7.10
2021,04,20,00,59,7.10
2021,04,20,01,00,7.00
2021,04,20,01,01,7.00
2021,04,20,01,02,6.90
2021,04,20,01,03,6.90
2021,04,20,01,04,6.90
2021,04,20,01,05,6.90
2021,04,20,01,06,6.90
2021,04,20,01,07,6.90
2021,04,20,01,08,6.90
2021,04,20,01,09,6.90
2021,04,20,01,10,6.90
2021,04,20,01,11,6.90
2021,04,20,01,12,6.80
2021,04,20,01,13,6.80
2021,04,20,01,14,6.80
2021,04,20,01,15,6.80
2021,04,20,01,16,6.80
2021,04,20,01,17,6.80
2021,04,20,01,18,6.80
2021,04,20,01,19,6.80
2021,04,20,01,20,6.80
2021,04,20,01,21,6.80
2021,04,20,01,22,6.80
2021,04,20,01,23,6.80
2021,04,20,01,24,6.80
2021,04,20,01,25,6.80
2021,04,20,01,26,6.80
2021,04,20,01,27,6.80
2021,04,20,01,28,6.80
2021,04,20,01,29,6.80
2021,04,20,01,30,6.80
2021,04,20,01,31,6.80
2021,04,20,01,32,6.80
2021,04,20,01,33,6.80
2021,04,20,01,34,6.80
2021,04,20,01,35,6.80
2021,04,20,01,36,6.80
2021,04,20,01,37,6.80
2021,04,20,01,38,6.70
2021,04,20,01,39,6.70
2021,04,20,01,40,6.70
2021,04,20,01,41,6.70
2021,04,20,01,42,6.70
2021,04,20,01,43,6.70
2021,04,20,01,44,6.70
2021,04,20,01,45,6.70
2021,04,20,01,46,6.70
2021,04,20,01,47,6.70
2021,04,20,01,48,6.70
2021,04,20,01,49,6.70
2021,04,20,01,50,6.60
2021,04,20,01,51,6.60
2021,04,20,01,52,6.60
2021,04,20,01,53,6.60
2021,04,20,01,54,6.60
2021,04,20,01,55,6.60
2021,04,20,01,56,6.50
2021,04,20,01,57,6.50
2021,04,20,01,58,6.50
2021,04,20,01,59,6.40
2021,04,20,02,00,6.40
2021,04,20,02,01,6.40
2021,04,20,02,02,6.40
2021,04,20,02,03,6.40
2021,04,20,02,04,6.40
2021,04,20,02,05,6.40
2021,04,20,02,06,6.40
2021,04,20,02,07,6.30
2021,04,20,02,08,6.30
2021,04,20,02,09,6.30
2021,04,20,02,10,6.30
2021,04,20,02,11,6.30
2021,04,20,02,12,6.30
2021,04,20,02,13,6.30
2021,04,20,02,14,6.30
2021,04,20,02,15,6.30
2021,04,20,02,16,6.30
2021,04,20,02,17,6.30
2021,04,20,02,18,6.30
2021,04,20,02,19,6.30
2021,04,20,02,20,6.30
2021,04,20,02,21,6.30
2021,04,20,02,22,6.30
2021,04,20,02,23,6.30
2021,04,20,02,24,6.30
2021,04,20,02,25,6.30
2021,04,20,02,26,6.20
2021,04,20,02,27,6.20
2021,04,20,02,28,6.20
2021,04,20,02,29,6.20
2021,04,20,02,30,6.30
2021,04,20,02,31,6.30
2021,04,20,02,32,6.40
2021,04,20,02,33,6.40
2021,04,20,02,34,6.40
2021,04,20,02,35,6.30
2021,04,20,02,36,6.30
2021,04,20,02,37,6.30
2021,04,20,02,38,6.30
2021,04,20,02,39,6.20
2021,04,20,02,40,6.20
2021,04,20,02,41,6.20
2021,04,20,02,42,6.10
2021,04,20,02,43,6.10
2021,04,20,02,44,6.10
2021,04,20,02,45,6.00
2021,04,20,02,46,6.00
2021,04,20,02,47,5.90
2021,04,20,02,48,5.90
2021,04,20,02,49,5.90
2021,04,20,02,50,5.90
2021,04,20,02,51,5.90
2021,04,20,02,52,5.90
2021,04,20,02,53,5.90
2021,04,20,02,54,5.80
2021,04,20,02,55,5.80
2021,04,20,02,56,5.80
2021,04,20,02,57,5.80
2021,04,20,02,58,5.80
2021,04,20,02,59,5.80
2021,04,20,03,00,5.80
2021,04,20,03,01,5.80
2021,04,20,03,02,5.80
2021,04,20,03,03,5.80
2021,04,20,03,04,5.80
2021,04,20,03,05,5.80
2021,04,20,03,06,5.80
2021,04,20,03,07,5.80
2021,04,20,03,08,5.80
2021,04,20,03,09,5.80
2021,04,20,03,10,5.80
2021,04,20,03,11,5.70
2021,04,20,03,12,5.70
2021,04,20,03,13,5.70
2021,04,20,03,14,5.70
2021,04,20,03,15,5.70
2021,04,20,03,16,5.70
2021,04,20,03,17,5.70
2021,04,20,03,18,5.70
2021,04,20,03,19,5.70
2021,04,20,03,20,5.70
2021,04,20,03,21,5.70
2021,04,20,03,22,5.60
2021,04,20,03,23,5.60
2021,04,20,03,24,5.60
2021,04,20,03,25,5.60
2021,04,20,03,26,5.60
2021,04,20,03,27,5.60
2021,04,20,03,28,5.60
2021,04,20,03,29,5.60
2021,04,20,03,30,5.60
2021,04,20,03,31,5.60
2021,04,20,03,32,5.60
2021,04,20,03,33,5.60
2021,04,20,03,34,5.50
2021,04,20,03,35,5.50
2021,04,20,03,36,5.50
2021,04,20,03,37,5.50
2021,04,20,03,38,5.50
2021,04,20,03,39,5.50
2021,04,20,03,40,5.40
2021,04,20,03,41,5.40
2021,04,20,03,42,5.40
2021,04,20,03,43,5.40
2021,04,20,03,44,5.40
2021,04,20,03,45,5.40
2021,04,20,03,46,5.40
2021,04,20,03,47,5.40
2021,04,20,03,48,5.40
2021,04,20,03,49,5.40
2021,04,20,03,50,5.40
2021,04,20,03,51,5.40
2021,04,20,03,52,5.40
2021,04,20,03,53,5.40
2021,04,20,03,54,5.40
2021,04,20,03,55,5.40
2021,04,20,03,56,5.30
2021,04,20,03,57,5.30
2021,04,20,03,58,5.30
2021,04,20,03,59,5.30
2021,04,20,04,00,5.30
2021,04,20,04,01,5.30
2021,04,20,04,02,5.30
2021,04,20,04,03,5.30
2021,04,20,04,04,5.30
2021,04,20,04,05,5.30
2021,04,20,04,06,5.20
2021,04,20,04,07,5.20
2021,04,20,04,08,5.20
2021,04,20,04,09,5.20
2021,04,20,04,10,5.20
2021,04,20,04,11,5.20
2021,04,20,04,12,5.10
2021,04,20,04,13,5.10
2021,04,20,04,14,5.10
2021,04,20,04,15,5.10
2021,04,20,04,16,5.10
2021,04,20,04,17,5.10
2021,04,20,04,18,5.00
2021,04,20,04,19,5.00
2021,04,20,04,20,5.00
2021,04,20,04,21,4.90
2021,04,20,04,22,4.90
2021,04,20,04,23,5.00
2021,04,20,04,24,4.90
2021,04,20,04,25,5.00
2021,04,20,04,26,4.90
2021,04,20,04,27,4.90
2021,04,20,04,28,4.90
2021,04,20,04,29,4.90
2021,04,20,04,30,4.90
2021,04,20,04,31,4.90
2021,04,20,04,32,4.90
2021,04,20,04,33,4.90
2021,04,20,04,34,4.90
2021,04,20,04,35,4.90
2021,04,20,04,36,5.00
2021,04,20,04,37,5.00
2021,04,20,04,38,5.00
2021,04,20,04,39,5.10
2021,04,20,04,40,5.00
2021,04,20,04,41,5.00
2021,04,20,04,42,5.00
2021,04,20,04,43,5.00
2021,04,20,04,44,5.00
2021,04,20,04,45,4.90
2021,04,20,04,46,4.90
2021,04,20,04,47,4.90
2021,04,20,04,48,4.90
2021,04,20,04,49,4.90
2021,04,20,04,50,4.90
2021,04,20,04,51,4.90
2021,04,20,04,52,4.90
2021,04,20,04,53,4.80
2021,04,20,04,54,4.80
2021,04,20,04,55,4.80
2021,04,20,04,56,4.80
2021,04,20,04,57,4.80
2021,04,20,04,58,4.80
2021,04,20,04,59,4.70
2021,04,20,05,00,4.70
2021,04,20,05,01,4.70
2021,04,20,05,02,4.70
2021,04,20,05,03,4.70
2021,04,20,05,04,4.70
2021,04,20,05,05,4.70
2021,04,20,05,06,4.60
2021,04,20,05,07,4.60
2021,04,20,05,08,4.60
2021,04,20,05,09,4.60
2021,04,20,05,10,4.60
2021,04,20,05,11,4.60
2021,04,20,05,12,4.60
2021,04,20,05,13,4.60
2021,04,20,05,14,4.50
2021,04,20,05,15,4.60
2021,04,20,05,16,4.60
2021,04,20,05,17,4.60
2021,04,20,05,18,4.60
2021,04,20,05,19,4.60
2021,04,20,05,20,4.60
2021,04,20,05,21,4.60
2021,04,20,05,22,4.50
2021,04,20,05,23,4.50
2021,04,20,05,24,4.50
2021,04,20,05,25,4.40
2021,04,20,05,26,4.40
2021,04,20,05,27,4.40
2021,04,20,05,28,4.40
2021,04,20,05,29,4.40
2021,04,20,05,30,4.40
2021,04,20,05,31,4.40
2021,04,20,05,32,4.40
2021,04,20,05,33,4.40
2021,04,20,05,34,4.40
2021,04,20,05,35,4.40
2021,04,20,05,36,4.40
2021,04,20,05,37,4.40
2021,04,20,05,38,4.40
2021,04,20,05,39,4.40
2021,04,20,05,40,4.40
2021,04,20,05,41,4.40
2021,04,20,05,42,4.40
2021,04,20,05,43,4.40
2021,04,20,05,44,4.40
2021,04,20,05,45,4.40
2021,04,20,05,46,4.40
2021,04,20,05,47,4.40
2021,04,20,05,48,4.40
2021,04,20,05,49,4.40
2021,04,20,05,50,4.40
2021,04,20,05,51,4.40
2021,04,20,05,52,4.30
2021,04,20,05,53,4.30
2021,04,20,05,54,4.30
2021,04,20,05,55,4.30
2021,04,20,05,56,4.30
2021,04,20,05,57,4.30
2021,04,20,05,58,4.20
2021,04,20,05,59,4.20
2021,04,20,06,00,4.20
2021,04,20,06,01,4.20
2021,04,20,06,02,4.20
2021,04,20,06,03,4.20
2021,04,20,06,04,4.20
2021,04,20,06,05,4.20
2021,04,20,06,06,4.20
2021,04,20,06,07,4.20
2021,04,20,06,08,4.20
2021,04,20,06,09,4.10
2021,04,20,06,10,4.10
2021,04,20,06,11,4.10
2021,04,20,06,12,4.10
2021,04,20,06,13,4.10
2021,04,20,06,14,4.10
2021,04,20,06,15,4.00
2021,04,20,06,16,4.00
2021,04,20,06,17,4.00
2021,04,20,06,18,3.90
2021,04,20,06,19,3.90
2021,04,20,06,20,3.90
2021,04,20,06,21,3.90
2021,04,20,06,22,3.90
2021,04,20,06,23,3.90
2021,04,20,06,24,3.90
2021,04,20,06,25,3.90
2021,04,20,06,26,3.80
2021,04,20,06,27,3.80
2021,04,20,06,28,3.90
2021,04,20,06,29,3.90
2021,04,20,06,30,3.90
2021,04,20,06,31,3.90
2021,04,20,06,32,3.90
2021,04,20,06,33,3.90
2021,04,20,06,34,3.90
2021,04,20,06,35,3.90
2021,04,20,06,36,3.90
2021,04,20,06,37,3.90
2021,04,20,06,38,3.90
2021,04,20,06,39,4.00
2021,04,20,06,40,4.00
2021,04,20,06,41,4.00
2021,04,20,06,42,4.00
2021,04,20,06,43,4.00
2021,04,20,06,44,4.10
2021,04,20,06,45,4.10
2021,04,20,06,46,4.10
2021,04,20,06,47,4.10
2021,04,20,06,48,4.10
2021,04,20,06,49,4.10
2021,04,20,06,50,4.10
2021,04,20,06,51,4.10
2021,04,20,06,52,4.10
2021,04,20,06,53,4.10
2021,04,20,06,54,4.10
2021,04,20,06,55,4.10
2021,04,20,06,56,4.10
2021,04,20,06,57,4.10
2021,04,20,06,58,4.10
2021,04,20,06,59,4.10
2021,04,20,07,00,4.10
2021,04,20,07,01,4.20
2021,04,20,07,02,4.20
2021,04,20,07,03,4.20
2021,04,20,07,04,4.30
2021,04,20,07,05,4.30
2021,04,20,07,06,4.30
2021,04,20,07,07,4.40
2021,04,20,07,08,4.40
2021,04,20,07,09,4.50
2021,04,20,07,10,4.50
2021,04,20,07,11,4.60
2021,04,20,07,12,4.60
2021,04,20,07,13,4.70
2021,04,20,07,14,4.70
2021,04,20,07,15,4.80
2021,04,20,07,16,4.80
2021,04,20,07,17,4.80
2021,04,20,07,18,4.90
2021,04,20,07,19,4.90
2021,04,20,07,20,5.00
2021,04,20,07,21,5.00
2021,04,20,07,22,5.10
2021,04,20,07,23,5.10
2021,04,20,07,24,5.20
2021,04,20,07,25,5.20
2021,04,20,07,26,5.30
2021,04,20,07,27,5.30
2021,04,20,07,28,5.40
2021,04,20,07,29,5.40
2021,04,20,07,30,5.50
2021,04,20,07,31,5.60
2021,04,20,07,32,5.60
2021,04,20,07,33,5.70
2021,04,20,07,34,5.70
2021,04,20,07,35,5.80
2021,04,20,07,36,5.80
2021,04,20,07,37,5.80
2021,04,20,07,38,5.80
2021,04,20,07,39,5.80
2021,04,20,07,40,5.80
2021,04,20,07,41,5.80
2021,04,20,07,42,5.80
2021,04,20,07,43,5.80
2021,04,20,07,44,5.80
2021,04,20,07,45,5.90
2021,04,20,07,46,5.90
2021,04,20,07,47,6.00
2021,04,20,07,48,6.00
2021,04,20,07,49,6.10
2021,04,20,07,50,6.20
2021,04,20,07,51,6.20
2021,04,20,07,52,6.20
2021,04,20,07,53,6.20
2021,04,20,07,54,6.20
2021,04,20,07,55,6.30
2021,04,20,07,56,6.30
2021,04,20,07,57,6.40
2021,04,20,07,58,6.50
2021,04,20,07,59,6.60
2021,04,20,08,00,6.60
2021,04,20,08,01,6.70
2021,04,20,08,02,6.80
2021,04,20,08,03,6.90
2021,04,20,08,04,6.90
2021,04,20,08,05,7.00
2021,04,20,08,06,7.00
2021,04,20,08,07,7.10
2021,04,20,08,08,7.20
2021,04,20,08,09,7.20
2021,04,20,08,10,7.30
2021,04,20,08,11,7.40
2021,04,20,08,12,7.50
2021,04,20,08,13,7.60
2021,04,20,08,14,7.70
2021,04,20,08,15,7.80
2021,04,20,08,16,7.90
2021,04,20,08,17,8.00
2021,04,20,08,18,8.10
2021,04,20,08,19,8.30
2021,04,20,08,20,8.40
2021,04,20,08,21,8.50
2021,04,20,08,22,8.50
2021,04,20,08,23,8.60
2021,04,20,08,24,8.80
2021,04,20,08,25,9.00
2021,04,20,08,26,9.10
2021,04,20,08,27,9.30
2021,04,20,08,28,9.50
2021,04,20,08,29,9.70
2021,04,20,08,30,9.80
2021,04,20,08,31,10.00
2021,04,20,08,32,10.10
2021,04,20,08,33,10.20
2021,04,20,08,34,10.40
2021,04,20,08,35,10.50
2021,04,20,08,36,10.60
2021,04,20,08,37,10.80
2021,04,20,08,38,10.90
2021,04,20,08,39,11.00
2021,04,20,08,40,11.10
2021,04,20,08,41,11.20
2021,04,20,08,42,11.30
2021,04,20,08,43,11.30
2021,04,20,08,44,11.30
2021,04,20,08,45,11.30
2021,04,20,08,46,11.30
2021,04,20,08,47,11.40
2021,04,20,08,48,11.50
2021,04,20,08,49,11.60
2021,04,20,08,50,11.70
2021,04,20,08,51,11.80
2021,04,20,08,52,11.80
2021,04,20,08,53,11.90
2021,04,20,08,54,12.00
2021,04,20,08,55,12.20
2021,04,20,08,56,12.30
2021,04,20,08,57,12.40
2021,04,20,08,58,12.50
2021,04,20,08,59,12.60
2021,04,20,09,00,12.70
2021,04,20,09,01,12.70
2021,04,20,09,02,12.70
2021,04,20,09,03,12.70
2021,04,20,09,04,12.70
2021,04,20,09,05,12.70
2021,04,20,09,06,12.60
2021,04,20,09,07,12.60
2021,04,20,09,08,12.60
2021,04,20,09,09,12.50
2021,04,20,09,10,12.50
2021,04,20,09,11,12.40
2021,04,20,09,12,12.40
2021,04,20,09,13,12.40
2021,04,20,09,14,12.40
2021,04,20,09,15,12.40
2021,04,20,09,16,12.50
2021,04,20,09,17,12.50
2021,04,20,09,18,12.60
2021,04,20,09,19,12.70
2021,04,20,09,20,12.70
2021,04,20,09,21,12.80
2021,04,20,09,22,12.80
2021,04,20,09,23,12.90
2021,04,20,09,24,12.90
2021,04,20,09,25,12.90
2021,04,20,09,26,12.90
2021,04,20,09,27,13.00
2021,04,20,09,28,13.00
2021,04,20,09,29,13.00
2021,04,20,09,30,12.90
2021,04,20,09,31,12.90
2021,04,20,09,32,13.00
2021,04,20,09,33,13.00
2021,04,20,09,34,13.00
2021,04,20,09,35,13.00
2021,04,20,09,36,13.10
2021,04,20,09,37,13.10
2021,04,20,09,38,13.20
2021,04,20,09,39,13.20
2021,04,20,09,40,13.30
2021,04,20,09,41,13.30
2021,04,20,09,42,13.30
2021,04,20,09,43,13.30
2021,04,20,09,44,13.30
2021,04,20,09,45,13.30
2021,04,20,09,46,13.30
2021,04,20,09,47,13.40
2021,04,20,09,48,13.40
2021,04,20,09,49,13.40
2021,04,20,09,50,13.40
2021,04,20,09,51,13.40
2021,04,20,09,52,13.40
2021,04,20,09,53,13.50
2021,04,20,09,54,13.50
2021,04,20,09,55,13.60
2021,04,20,09,56,13.60
2021,04,20,09,57,13.70
2021,04,20,09,58,13.70
2021,04,20,09,59,13.80
2021,04,20,10,00,13.80
2021,04,20,10,01,13.80
2021,04,20,10,02,13.80
2021,04,20,10,03,13.80
2021,04,20,10,04,13.80
2021,04,20,10,05,13.80
2021,04,20,10,06,13.80
2021,04,20,10,07,13.80
2021,04,20,10,08,13.80
2021,04,20,10,09,13.80
2021,04,20,10,10,13.90
2021,04,20,10,11,13.90
2021,04,20,10,12,14.00
2021,04,20,10,13,14.00
2021,04,20,10,14,14.10
2021,04,20,10,15,14.20
2021,04,20,10,16,14.20
2021,04,20,10,17,14.20
2021,04,20,10,18,14.20
2021,04,20,10,19,14.30
2021,04,20,10,20,14.30
2021,04,20,10,21,14.30
2021,04,20,10,22,14.40
2021,04,20,10,23,14.40
2021,04,20,10,24,14.50
2021,04,20,10,25,14.60
2021,04,20,10,26,14.60
2021,04,20,10,27,14.70
2021,04,20,10,28,14.70
2021,04,20,10,29,14.70
2021,04,20,10,30,14.80
2021,04,20,10,31,14.80
2021,04,20,10,32,14.80
2021,04,20,10,33,14.80
2021,04,20,10,34,14.90
2021,04,20,10,35,14.90
2021,04,20,10,36,14.80
2021,04,20,10,37,14.80
2021,04,20,10,38,14.70
2021,04,20,10,39,14.70
2021,04,20,10,40,14.70
2021,04,20,10,41,14.60
2021,04,20,10,42,14.50
2021,04,20,10,43,14.40
2021,04,20,10,44,14.30
2021,04,20,10,45,14.30
2021,04,20,10,46,14.30
2021,04,20,10,47,14.40
2021,04,20,10,48,14.40
2021,04,20,10,49,14.40
2021,04,20,10,50,14.50
2021,04,20,10,51,14.50
2021,04,20,10,52,14.60
2021,04,20,10,53,14.60
2021,04,20,10,54,14.70
2021,04,20,10,55,14.70
2021,04,20,10,56,14.70
2021,04,20,10,57,14.70
2021,04,20,10,58,14.70
2021,04,20,10,59,14.70
2021,04,20,11,00,14.60
2021,04,20,11,01,14.70
2021,04,20,11,02,14.70
2021,04,20,11,03,14.60
2021,04,20,11,04,14.60
2021,04,20,11,05,14.50
2021,04,20,11,06,14.40
2021,04,20,11,07,14.40
2021,04,20,11,08,14.30
2021,04,20,11,09,14.30
2021,04,20,11,10,14.30
2021,04,20,11,11,14.30
2021,04,20,11,12,14.30
2021,04,20,11,13,14.40
2021,04,20,11,14,14.50
2021,04,20,11,15,14.60
2021,04,20,11,16,14.60
2021,04,20,11,17,14.70
2021,04,20,11,18,14.80
2021,04,20,11,19,14.80
2021,04,20,11,20,14.90
2021,04,20,11,21,14.90
2021,04,20,11,22,15.00
2021,04,20,11,23,15.00
2021,04,20,11,24,14.90
2021,04,20,11,25,14.90
2021,04,20,11,26,14.90
2021,04,20,11,27,14.90
2021,04,20,11,28,15.00
2021,04,20,11,29,14.90
2021,04,20,11,30,14.90
2021,04,20,11,31,14.90
2021,04,20,11,32,14.90
2021,04,20,11,33,15.00
2021,04,20,11,34,15.00
2021,04,20,11,35,15.00
2021,04,20,11,36,14.90
2021,04,20,11,37,14.90
2021,04,20,11,38,14.90
2021,04,20,11,39,14.90
2021,04,20,11,40,14.80
2021,04,20,11,41,14.80
2021,04,20,11,42,14.80
2021,04,20,11,43,14.90
2021,04,20,11,44,14.90
2021,04,20,11,45,14.90
2021,04,20,11,46,15.00
2021,04,20,11,47,15.10
2021,04,20,11,48,15.10
2021,04,20,11,49,15.20
2021,04,20,11,50,15.20
2021,04,20,11,51,15.20
2021,04,20,11,52,15.30
2021,04,20,11,53,15.30
2021,04,20,11,54,15.30
2021,04,20,11,55,15.30
2021,04,20,11,56,15.30
2021,04,20,11,57,15.30
2021,04,20,11,58,15.30
2021,04,20,11,59,15.30
2021,04,20,12,00,15.40
2021,04,20,12,01,15.40
2021,04,20,12,02,15.40
2021,04,20,12,03,15.40
2021,04,20,12,04,15.40
2021,04,20,12,05,15.30
2021,04,20,12,06,15.30
2021,04,20,12,07,15.30
2021,04,20,12,08,15.30
2021,04,20,12,09,15.30
2021,04,20,12,10,15.30
2021,04,20,12,11,15.30
2021,04,20,12,12,15.30
2021,04,20,12,13,15.20
2021,04,20,12,14,15.20
2021,04,20,12,15,15.20
2021,04,20,12,16,15.20
2021,04,20,12,17,15.20
2021,04,20,12,18,15.20
2021,04,20,12,19,15.30
2021,04,20,12,20,15.30
2021,04,20,12,21,15.30
2021,04,20,12,22,15.30
2021,04,20,12,23,15.30
2021,04,20,12,24,15.40
2021,04,20,12,25,15.40
2021,04,20,12,26,15.40
2021,04,20,12,27,15.40
2021,04,20,12,28,15.40
2021,04,20,12,29,15.40
2021,04,20,12,30,15.40
2021,04,20,12,31,15.50
2021,04,20,12,32,15.50
2021,04,20,12,33,15.50
2021,04,20,12,34,15.40
2021,04,20,12,35,15.30
2021,04,20,12,36,15.30
2021,04,20,12,37,15.20
2021,04,20,12,38,15.20
2021,04,20,12,39,15.20
2021,04,20,12,40,15.20
2021,04,20,12,41,15.20
2021,04,20,12,42,15.30
2021,04,20,12,43,15.30
2021,04,20,12,44,15.40
2021,04,20,12,45,15.50
2021,04,20,12,46,15.50
2021,04,20,12,47,15.60
2021,04,20,12,48,15.70
2021,04,20,12,49,15.60
2021,04,20,12,50,15.70
2021,04,20,12,51,15.70
2021,04,20,12,52,15.70
2021,04,20,12,53,15.80
2021,04,20,12,54,15.80
2021,04,20,12,55,15.80
2021,04,20,12,56,15.90
2021,04,20,12,57,15.90
2021,04,20,12,58,15.90
2021,04,20,12,59,15.90
2021,04,20,13,00,15.90
2021,04,20,13,01,16.00
2021,04,20,13,02,16.00
2021,04,20,13,03,16.00
2021,04,20,13,04,16.00
2021,04,20,13,05,16.00
2021,04,20,13,06,16.00
2021,04,20,13,07,16.10
2021,04,20,13,08,16.10
2021,04,20,13,09,16.20
2021,04,20,13,10,16.20
2021,04,20,13,11,16.20
2021,04,20,13,12,16.20
2021,04,20,13,13,16.20
2021,04,20,13,14,16.10
2021,04,20,13,15,16.00
2021,04,20,13,16,15.80
2021,04,20,13,17,15.70
2021,04,20,13,18,15.60
2021,04,20,13,19,15.50
2021,04,20,13,20,15.40
2021,04,20,13,21,15.30
2021,04,20,13,22,15.30
2021,04,20,13,23,15.30
2021,04,20,13,24,15.40
2021,04,20,13,25,15.40
2021,04,20,13,26,15.50
2021,04,20,13,27,15.60
2021,04,20,13,28,15.70
2021,04,20,13,29,15.80
2021,04,20,13,30,15.80
2021,04,20,13,31,15.80
2021,04,20,13,32,15.70
2021,04,20,13,33,15.60
2021,04,20,13,34,15.60
2021,04,20,13,35,15.50
2021,04,20,13,36,15.50
2021,04,20,13,37,15.60
2021,04,20,13,38,15.70
2021,04,20,13,39,15.70
2021,04,20,13,40,15.80
2021,04,20,13,41,15.80
2021,04,20,13,42,15.80
2021,04,20,13,43,15.80
2021,04,20,13,44,15.80
2021,04,20,13,45,15.90
2021,04,20,13,46,15.90
2021,04,20,13,47,16.00
2021,04,20,13,48,16.00
2021,04,20,13,49,16.00
2021,04,20,13,50,16.10
2021,04,20,13,51,16.10
2021,04,20,13,52,16.10
2021,04,20,13,53,16.00
2021,04,20,13,54,15.90
2021,04,20,13,55,16.00
2021,04,20,13,56,16.00
2021,04,20,13,57,16.00
2021,04,20,13,58,16.00
2021,04,20,13,59,16.00
2021,04,20,14,00,16.00
2021,04,20,14,01,16.00
2021,04,20,14,02,15.90
2021,04,20,14,03,15.80
2021,04,20,14,04,15.80
2021,04,20,14,05,15.80
2021,04,20,14,06,15.90
2021,04,20,14,07,15.90
2021,04,20,14,08,15.90
2021,04,20,14,09,16.00
2021,04,20,14,10,16.00
2021,04,20,14,11,16.10
2021,04,20,14,12,16.10
2021,04,20,14,13,16.20
2021,04,20,14,14,16.40
2021,04,20,14,15,16.40
2021,04,20,14,16,16.40
2021,04,20,14,17,16.30
2021,04,20,14,18,16.20
2021,04,20,14,19,16.10
2021,04,20,14,20,16.00
2021,04,20,14,21,15.90
2021,04,20,14,22,15.90
2021,04,20,14,23,15.80
2021,04,20,14,24,15.90
2021,04,20,14,25,15.90
2021,04,20,14,26,16.00
2021,04,20,14,27,16.00
2021,04,20,14,28,16.00
2021,04,20,14,29,16.10
2021,04,20,14,30,16.10
2021,04,20,14,31,16.20
2021,04,20,14,32,16.30
2021,04,20,14,33,16.40
2021,04,20,14,34,16.50
2021,04,20,14,35,16.50
2021,04,20,14,36,16.50
2021,04,20,14,37,16.40
2021,04,20,14,38,16.40
2021,04,20,14,39,16.40
2021,04,20,14,40,16.30
2021,04,20,14,41,16.30
2021,04,20,14,42,16.20
2021,04,20,14,43,16.20
2021,04,20,14,44,16.30
2021,04,20,14,45,16.30
2021,04,20,14,46,16.30
2021,04,20,14,47,16.30
2021,04,20,14,48,16.40
2021,04,20,14,49,16.40
2021,04,20,14,50,16.50
2021,04,20,14,51,16.60
2021,04,20,14,52,16.60
2021,04,20,14,53,16.70
2021,04,20,14,54,16.80
2021,04,20,14,55,16.80
2021,04,20,14,56,16.90
2021,04,20,14,57,17.00
2021,04,20,14,58,17.10
2021,04,20,14,59,17.20
2021,04,20,15,00,17.30
2021,04,20,15,01,17.40
2021,04,20,15,02,17.40
2021,04,20,15,03,17.30
2021,04,20,15,04,17.30
2021,04,20,15,05,17.20
2021,04,20,15,06,17.20
2021,04,20,15,07,17.20
2021,04,20,15,08,17.10
2021,04,20,15,09,17.00
2021,04,20,15,10,17.00
2021,04,20,15,11,17.00
2021,04,20,15,12,17.10
2021,04,20,15,13,17.20
2021,04,20,15,14,17.30
2021,04,20,15,15,17.30
2021,04,20,15,16,17.40
2021,04,20,15,17,17.40
2021,04,20,15,18,17.50
2021,04,20,15,19,17.60
2021,04,20,15,20,17.70
2021,04,20,15,21,17.70
2021,04,20,15,22,17.70
2021,04,20,15,23,17.70
2021,04,20,15,24,17.70
2021,04,20,15,25,17.60
2021,04,20,15,26,17.60
2021,04,20,15,27,17.60
2021,04,20,15,28,17.60
2021,04,20,15,29,17.60
2021,04,20,15,30,17.60
2021,04,20,15,31,17.60
2021,04,20,15,32,17.60
2021,04,20,15,33,17.50
2021,04,20,15,34,17.50
2021,04,20,15,35,17.50
2021,04,20,15,36,17.50
2021,04,20,15,37,17.60
2021,04,20,15,38,17.50
2021,04,20,15,39,17.60
2021,04,20,15,40,17.50
2021,04,20,15,41,17.50
2021,04,20,15,42,17.50
2021,04,20,15,43,17.60
2021,04,20,15,44,17.60
2021,04,20,15,45,17.50
2021,04,20,15,46,17.50
2021,04,20,15,47,17.50
2021,04,20,15,48,17.60
2021,04,20,15,49,17.60
2021,04,20,15,50,17.70
2021,04,20,15,51,17.70
2021,04,20,15,52,17.80
2021,04,20,15,53,17.80
2021,04,20,15,54,17.80
2021,04,20,15,55,17.90
2021,04,20,15,56,17.90
2021,04,20,15,57,17.90
2021,04,20,15,58,17.80
2021,04,20,15,59,17.80
2021,04,20,16,00,17.80
2021,04,20,16,01,17.80
2021,04,20,16,02,17.80
2021,04,20,16,03,17.80
2021,04,20,16,04,17.80
2021,04,20,16,05,17.80
2021,04,20,16,06,17.80
2021,04,20,16,07,17.80
2021,04,20,16,08,17.80
2021,04,20,16,09,17.80
2021,04,20,16,10,17.80
2021,04,20,16,11,17.80
2021,04,20,16,12,17.80
2021,04,20,16,13,17.90
2021,04,20,16,14,17.90
2021,04,20,16,15,17.90
2021,04,20,16,16,17.80
2021,04,20,16,17,17.80
2021,04,20,16,18,17.80
2021,04,20,16,19,17.80
2021,04,20,16,20,17.80
2021,04,20,16,21,17.80
2021,04,20,16,22,17.80
2021,04,20,16,23,17.80
2021,04,20,16,24,17.90
2021,04,20,16,25,17.90
2021,04,20,16,26,17.90
2021,04,20,16,27,18.00
2021,04,20,16,28,18.00
2021,04,20,16,29,18.00
2021,04,20,16,30,18.10
2021,04,20,16,31,18.10
2021,04,20,16,32,18.10
2021,04,20,16,33,18.10
2021,04,20,16,34,18.10
2021,04,20,16,35,18.00
2021,04,20,16,36,18.00
2021,04,20,16,37,18.00
2021,04,20,16,38,18.00
2021,04,20,16,39,17.90
2021,04,20,16,40,17.90
2021,04,20,16,41,17.90
2021,04,20,16,42,17.90
2021,04,20,16,43,17.90
2021,04,20,16,44,17.90
2021,04,20,16,45,17.90
2021,04,20,16,46,17.90
2021,04,20,16,47,17.90
2021,04,20,16,48,17.90
2021,04,20,16,49,17.90
2021,04,20,16,50,17.90
2021,04,20,16,51,17.90
2021,04,20,16,52,17.90
2021,04,20,16,53,18.00
2021,04,20,16,54,18.00
2021,04,20,16,55,18.10
2021,04,20,16,56,18.10
2021,04,20,16,57,18.10
2021,04,20,16,58,18.10
2021,04,20,16,59,18.20
2021,04,20,17,00,18.20
2021,04,20,17,01,18.10
2021,04,20,17,02,18.10
2021,04,20,17,03,18.10
2021,04,20,17,04,18.10
2021,04,20,17,05,18.10
2021,04,20,17,06,18.10
2021,04,20,17,07,18.10
2021,04,20,17,08,18.10
2021,04,20,17,09,18.10
2021,04,20,17,10,18.00
2021,04,20,17,11,18.00
2021,04,20,17,12,17.90
2021,04,20,17,13,17.90
2021,04,20,17,14,17.80
2021,04,20,17,15,17.80
2021,04,20,17,16,17.80
2021,04,20,17,17,17.80
2021,04,20,17,18,17.70
2021,04,20,17,19,17.70
2021,04,20,17,20,17.70
2021,04,20,17,21,17.60
2021,04,20,17,22,17.60
2021,04,20,17,23,17.50
2021,04,20,17,24,17.50
2021,04,20,17,25,17.40
2021,04,20,17,26,17.40
2021,04,20,17,27,17.40
2021,04,20,17,28,17.40
2021,04,20,17,29,17.40
2021,04,20,17,30,17.40
2021,04,20,17,31,17.50
2021,04,20,17,32,17.40
2021,04,20,17,33,17.50
2021,04,20,17,34,17.50
2021,04,20,17,35,17.40
2021,04,20,17,36,17.40
2021,04,20,17,37,17.40
2021,04,20,17,38,17.40
2021,04,20,17,39,17.40
2021,04,20,17,40,17.40
2021,04,20,17,41,17.40